Total_Precipitation_Accumulation
0.04 0.03 0.02 0.01 0.01 0.00 0.00 0.00 0.00 0.00 0.00 0.00 0.00 0.00 0.00 0.00 0.00 0.01 0.01 0.02 0.03 0.04 0.04 0.05 0.06 0.07 0.07 0.07 0.07 0.08 0.08 0.12 0.16 0.09 0.04 0.04 0.06 0.08 0.11 0.14 0.14 0.12 0.11
0.04 0.03 0.02 0.01 0.00 0.00 0.00 0.00 0.00 0.00 0.00 0.00 0.00 0.00 0.00 0.00 0.01 0.02 0.03 0.03 0.04 0.05 0.05 0.05 0.05 0.06 0.08 0.07 0.06 0.06 0.08 0.12 0.19 0.18 0.11 0.08 0.08 0.10 0.12 0.13 0.10 0.09 0.10
0.03 0.02 0.01 0.00 0.00 0.00 0.00 0.00 0.00 0.00 0.00 0.00 0.00 0.00 0.00 0.01 0.02 0.03 0.03 0.04 0.04 0.03 0.03 0.03 0.04 0.05 0.06 0.05 0.06 0.08 0.09 0.12 0.17 0.20 0.13 0.10 0.08 0.07 0.11 0.14 0.14 0.15 0.09
0.02 0.01 0.01 0.00 0.00 0.00 0.00 0.00 0.00 0.00 0.00 0.00 0.01 0.01 0.01 0.02 0.02 0.02 0.02 0.01 0.01 0.01 0.01 0.02 0.03 0.05 0.07 0.09 0.08 0.09 0.10 0.12 0.13 0.14 0.12 0.08 0.07 0.07 0.12 0.19 0.19 0.14 0.11
0.01 0.01 0.01 0.00 0.00 0.00 0.00 0.00 0.00 0.01 0.01 0.01 0.01 0.01 0.01 0.01 0.01 0.00 0.00 0.00 0.00 0.01 0.01 0.02 0.03 0.05 0.09 0.11 0.10 0.10 0.11 0.12 0.12 0.14 0.12 0.09 0.06 0.09 0.14 0.19 0.18 0.13 0.10
0.02 0.01 0.01 0.01 0.01 0.01 0.00 0.00 0.01 0.01 0.00 0.00 0.00 0.00 0.00 0.00 0.00 0.00 0.00 0.00 0.00 0.01 0.02 0.02 0.02 0.03 0.05 0.06 0.06 0.07 0.09 0.12 0.15 0.17 0.15 0.10 0.06 0.11 0.18 0.23 0.22 0.17 0.12
0.03 0.02 0.02 0.02 0.01 0.01 0.00 0.00 0.00 0.00 0.00 0.00 0.00 0.00 0.00 0.00 0.00 0.00 0.00 0.00 0.01 0.03 0.04 0.04 0.03 0.03 0.05 0.05 0.05 0.06 0.06 0.10 0.18 0.23 0.22 0.14 0.11 0.17 0.26 0.27 0.20 0.17 0.15
0.05 0.04 0.03 0.02 0.01 0.01 0.00 0.00 0.00 0.00 0.00 0.00 0.00 0.00 0.01 0.01 0.00 0.00 0.00 0.01 0.02 0.03 0.04 0.05 0.06 0.06 0.06 0.06 0.04 0.04 0.06 0.11 0.20 0.24 0.25 0.21 0.23 0.26 0.30 0.28 0.22 0.17 0.13
0.04 0.03 0.02 0.01 0.00 0.00 0.00 0.00 0.00 0.00 0.00 0.01 0.00 0.00 0.01 0.02 0.00 0.00 0.00 0.01 0.01 0.01 0.01 0.02 0.04 0.05 0.06 0.07 0.06 0.06 0.09 0.14 0.22 0.33 0.38 0.41 0.43 0.38 0.30 0.24 0.21 0.19 0.19
0.02 0.01 0.00 0.00 0.00 0.00 0.00 0.00 0.00 0.01 0.00 0.00 0.00 0.01 0.02 0.03 0.01 0.00 0.01 0.01 0.02 0.01 0.01 0.01 0.03 0.06 0.07 0.08 0.07 0.09 0.13 0.21 0.36 0.51 0.56 0.57 0.48 0.38 0.31 0.26 0.25 0.26 0.28
0.00 0.00 0.00 0.00 0.00 0.00 0.00 0.00 0.00 0.00 0.00 0.00 0.01 0.01 0.02 0.02 0.01 0.00 0.01 0.02 0.03 0.04 0.04 0.05 0.06 0.10 0.11 0.08 0.09 0.13 0.23 0.37 0.56 0.71 0.65 0.50 0.36 0.25 0.22 0.22 0.21 0.22 0.25
0.00 0.00 0.00 0.00 0.00 0.00 0.00 0.00 0.00 0.00 0.00 0.01 0.01 0.01 0.02 0.02 0.02 0.01 0.00 0.01 0.03 0.05 0.09 0.09 0.11 0.16 0.13 0.12 0.16 0.26 0.37 0.52 0.63 0.66 0.53 0.37 0.25 0.17 0.16 0.14 0.14 0.15 0.17
0.00 0.00 0.00 0.00 0.00 0.00 0.00 0.00 0.00 0.00 0.01 0.01 0.01 0.01 0.01 0.02 0.01 0.01 0.01 0.01 0.03 0.06 0.11 0.17 0.20 0.19 0.20 0.23 0.33 0.45 0.50 0.54 0.59 0.52 0.36 0.29 0.23 0.16 0.14 0.13 0.13 0.14 0.15
0.00 0.00 0.00 0.00 0.00 0.00 0.00 0.00 0.00 0.01 0.01 0.01 0.02 0.02 0.02 0.02 0.02 0.03 0.02 0.03 0.05 0.08 0.12 0.21 0.30 0.33 0.35 0.40 0.45 0.49 0.49 0.56 0.54 0.35 0.24 0.22 0.19 0.16 0.14 0.13 0.13 0.14 0.15
0.00 0.00 0.00 0.00 0.00 0.00 0.00 0.00 0.00 0.01 0.01 0.02 0.03 0.03 0.04 0.04 0.04 0.05 0.07 0.08 0.11 0.14 0.15 0.21 0.27 0.31 0.36 0.40 0.39 0.42 0.42 0.40 0.38 0.29 0.23 0.19 0.18 0.16 0.17 0.16 0.15 0.13 0.14
0.00 0.00 0.00 0.00 0.00 0.00 0.00 0.01 0.00 0.00 0.00 0.01 0.01 0.02 0.03 0.05 0.04 0.03 0.05 0.08 0.12 0.15 0.17 0.25 0.35 0.41 0.45 0.46 0.42 0.40 0.38 0.33 0.30 0.27 0.24 0.21 0.20 0.19 0.20 0.19 0.17 0.16 0.16
0.00 0.00 0.00 0.00 0.00 0.00 0.01 0.02 0.03 0.03 0.01 0.01 0.01 0.01 0.02 0.03 0.03 0.02 0.03 0.06 0.09 0.12 0.15 0.26 0.39 0.49 0.52 0.49 0.42 0.38 0.40 0.39 0.37 0.33 0.26 0.22 0.21 0.20 0.18 0.17 0.16 0.16 0.15
0.00 0.00 0.00 0.00 0.00 0.00 0.01 0.02 0.03 0.05 0.06 0.05 0.03 0.01 0.01 0.02 0.03 0.03 0.03 0.04 0.06 0.10 0.18 0.30 0.40 0.46 0.48 0.48 0.43 0.40 0.42 0.44 0.41 0.34 0.27 0.24 0.21 0.17 0.16 0.16 0.15 0.13 0.10
0.00 0.00 0.00 0.00 0.00 0.00 0.01 0.02 0.03 0.05 0.05 0.05 0.04 0.01 0.01 0.02 0.03 0.04 0.05 0.04 0.08 0.15 0.22 0.30 0.37 0.37 0.35 0.35 0.34 0.34 0.37 0.40 0.37 0.31 0.27 0.23 0.19 0.16 0.16 0.15 0.11 0.08 0.06
0.00 0.00 0.00 0.00 0.00 0.00 0.00 0.01 0.03 0.04 0.05 0.06 0.05 0.03 0.02 0.03 0.05 0.06 0.06 0.06 0.08 0.12 0.19 0.27 0.33 0.31 0.27 0.24 0.22 0.22 0.25 0.27 0.26 0.23 0.21 0.19 0.18 0.17 0.15 0.12 0.09 0.06 0.05
0.00 0.00 0.00 0.00 0.00 0.00 0.00 0.00 0.02 0.03 0.04 0.05 0.05 0.05 0.07 0.06 0.07 0.09 0.11 0.13 0.14 0.15 0.16 0.18 0.22 0.26 0.25 0.21 0.18 0.16 0.16 0.17 0.18 0.17 0.17 0.18 0.17 0.15 0.12 0.09 0.06 0.04 0.03
0.00 0.00 0.00 0.00 0.00 0.00 0.00 0.00 0.00 0.01 0.03 0.03 0.04 0.04 0.08 0.06 0.07 0.10 0.14 0.18 0.21 0.21 0.19 0.16 0.16 0.19 0.24 0.24 0.18 0.14 0.13 0.15 0.16 0.17 0.17 0.17 0.16 0.13 0.09 0.06 0.04 0.03 0.02
0.00 0.00 0.00 0.00 0.00 0.00 0.00 0.00 0.00 0.00 0.01 0.02 0.04 0.05 0.05 0.06 0.08 0.12 0.16 0.19 0.21 0.21 0.18 0.16 0.17 0.20 0.23 0.24 0.20 0.15 0.12 0.12 0.14 0.14 0.15 0.16 0.15 0.11 0.07 0.04 0.02 0.02 0.01
0.00 0.00 0.00 0.00 0.00 0.00 0.00 0.00 0.00 0.00 0.00 0.01 0.02 0.04 0.05 0.07 0.08 0.11 0.15 0.19 0.20 0.21 0.21 0.21 0.22 0.23 0.23 0.22 0.19 0.12 0.10 0.10 0.11 0.11 0.12 0.13 0.12 0.09 0.05 0.03 0.02 0.01 0.01
0.00 0.00 0.00 0.00 0.00 0.00 0.00 0.00 0.00 0.00 0.00 0.00 0.00 0.01 0.02 0.04 0.06 0.08 0.11 0.14 0.16 0.18 0.18 0.18 0.20 0.20 0.19 0.16 0.14 0.09 0.09 0.10 0.11 0.11 0.11 0.11 0.10 0.08 0.05 0.03 0.02 0.02 0.01
0.00 0.00 0.00 0.00 0.00 0.00 0.00 0.00 0.00 0.00 0.00 0.00 0.00 0.00 0.01 0.01 0.03 0.05 0.05 0.06 0.08 0.11 0.14 0.16 0.16 0.15 0.11 0.08 0.07 0.07 0.06 0.05 0.04 0.05 0.08 0.11 0.09 0.07 0.05 0.04 0.02 0.01 0.01